Beatrice, NE

4:36 AM CDT on July 27, 2017 (GMT -0500)
Beatrice Municipal

Weather History for KBIE - September, 2013

Change the Weather History Date:

Wednesday, September 11, 2013

  Actual Average Record
Temperature  
Mean Temperature 78 °F -  
Max Temperature 85 °F 84 °F 97 °F (1956)
Min Temperature 71 °F 58 °F 40 °F (1959)
Cooling Degree Days 13    
Growing Degree Days 28 (Base 50)    
Moisture  
Dew Point 70 °F    
Average Humidity 84    
Maximum Humidity 100    
Minimum Humidity 54    
Precipitation  
Precipitation 0.16 in - - ()
Sea Level Pressure  
Sea Level Pressure 30.10 in    
Wind  
Wind Speed 5 mph (NNE)    
Max Wind Speed 14 mph    
Max Gust Speed 18 mph    
Visibility 10 miles    
Events Rain , Thunderstorm    
Averages and records for this station are not official NWS values.
T = Trace of Precipitation, MM = Missing Value Source: NWS Daily Summary

Daily Weather History Graph

Daily Weather History Graph

Search for Another Location

Airport or City:

Trip Planner

Search our weather history database for the weather conditions in past years. The results will help you decide how hot, cold, wet, or windy it might be!

Date:

Astronomy

Sep. 11, 2013 Rise Set
Actual Time 7:04 AM CDT 7:42 PM CDT
Civil Twilight 6:36 AM CDT 8:09 PM CDT
Nautical Twilight 6:04 AM CDT 8:41 PM CDT
Astronomical Twilight 5:31 AM CDT 9:14 PM CDT
Moon 1:34 PM CDT (9/11) 11:38 PM CDT (9/11)
Length of Visible Light 13h 32m
Length of Day
12h 37m
Waxing Crescent, 39% of the Moon is Illuminated
Sep 11
Waxing Crescent
Sep 12
First Quarter
Sep 19
Full
Sep 26
Last Quarter
Oct 4
New

Hourly Weather History & Observations

Time (CDT) Temp. Heat Index Dew Point Humidity Pressure Visibility Wind Dir Wind Speed Gust Speed Precip Events Conditions
12:15 AM 74.5 °F - 71.8 °F 91% 30.07 in 10.0 mi NNE 9.2 mph - N/A   Scattered Clouds
12:35 AM 74.7 °F - 71.6 °F 90% 30.07 in 10.0 mi NE 4.6 mph - N/A   Scattered Clouds
12:55 AM 74.3 °F - 71.4 °F 91% 30.08 in 10.0 mi WNW 6.9 mph - N/A   Scattered Clouds
1:15 AM 73.6 °F - 71.6 °F 93% 30.09 in 10.0 mi WNW 5.8 mph - N/A   Scattered Clouds
1:35 AM 73.4 °F - 71.6 °F 94% 30.10 in 10.0 mi North 3.5 mph - N/A Thunderstorm Scattered Clouds
1:55 AM 72.7 °F - 71.8 °F 97% 30.09 in 5.0 mi ENE 5.8 mph - 0.02 in Rain Light Rain
2:15 AM 72.5 °F - 71.8 °F 98% 30.09 in 10.0 mi ENE 3.5 mph - N/A   Mostly Cloudy
2:35 AM 72.5 °F - 72.0 °F 98% 30.10 in 10.0 mi Calm Calm - N/A   Mostly Cloudy
2:55 AM 72.5 °F - 71.8 °F 98% 30.09 in 10.0 mi ENE 3.5 mph - N/A   Scattered Clouds
3:15 AM 72.5 °F - 71.8 °F 98% 30.10 in 10.0 mi Calm Calm - N/A   Mostly Cloudy
3:35 AM 72.7 °F - 71.8 °F 97% 30.10 in 10.0 mi Calm Calm - N/A   Mostly Cloudy
3:55 AM 72.5 °F - 71.8 °F 98% 30.11 in 10.0 mi Calm Calm - N/A   Mostly Cloudy
4:15 AM 72.3 °F - 72.0 °F 99% 30.10 in 2.0 mi North 3.5 mph - 0.10 in Rain Heavy Rain
4:35 AM 72.1 °F - 72.0 °F 99% 30.10 in 7.0 mi SE 3.5 mph - 0.14 in Rain Light Rain
4:55 AM 72.1 °F - 71.6 °F 98% 30.09 in 10.0 mi ESE 3.5 mph - 0.14 in   Overcast
5:15 AM 72.0 °F - 71.6 °F 99% 30.09 in 10.0 mi Calm Calm - N/A   Mostly Cloudy
5:35 AM 71.8 °F - 71.6 °F 99% 30.09 in 10.0 mi ESE 3.5 mph - N/A   Scattered Clouds
5:55 AM 71.6 °F - 71.6 °F 100% 30.08 in 10.0 mi Calm Calm - N/A   Mostly Cloudy
6:15 AM 71.6 °F - 71.4 °F 99% 30.09 in 10.0 mi ESE 3.5 mph - N/A   Scattered Clouds
6:35 AM 71.8 °F - 71.2 °F 98% 30.08 in 10.0 mi SE 3.5 mph - N/A   Scattered Clouds
6:55 AM 71.1 °F - 70.9 °F 99% 30.09 in 10.0 mi Calm Calm - N/A   Clear
7:15 AM 71.4 °F - 71.4 °F 100% 30.09 in 10.0 mi SSE 4.6 mph - N/A   Clear
7:35 AM 71.8 °F - 71.2 °F 98% 30.10 in 10.0 mi Calm Calm - N/A   Clear
7:55 AM 72.1 °F - 71.1 °F 96% 30.10 in 10.0 mi SSE 3.5 mph - N/A   Clear
8:15 AM 72.1 °F - 71.6 °F 98% 30.10 in 10.0 mi South 3.5 mph - N/A   Clear
8:35 AM 72.1 °F - 71.6 °F 98% 30.10 in 10.0 mi Calm Calm - N/A   Clear
8:55 AM 72.7 °F - 71.8 °F 97% 30.10 in 10.0 mi South 3.5 mph - N/A   Scattered Clouds
9:15 AM 73.6 °F - 72.1 °F 95% 30.10 in - Calm Calm - N/A   Unknown
9:35 AM - - - N/A% - - North - - N/A   Unknown
9:55 AM - - - N/A% - - North - - N/A   Unknown
10:15 AM 75.2 °F - 70.7 °F 86% 30.12 in 10.0 mi Calm Calm - N/A   Mostly Cloudy
10:35 AM 75.7 °F - 70.5 °F 84% 30.12 in 10.0 mi Calm Calm - N/A   Scattered Clouds
10:55 AM - - - N/A% - - North - - N/A   Unknown
11:15 AM 74.7 °F - 71.4 °F 90% 30.13 in 10.0 mi NNW 3.5 mph - N/A   Mostly Cloudy
11:19 AM 75.2 °F - 71.6 °F 89% 30.13 in 10.0 mi NNW 4.6 mph - N/A   Mostly Cloudy
11:35 AM 75.4 °F - 71.8 °F 89% 30.13 in 10.0 mi NNW 3.5 mph - N/A   Mostly Cloudy
11:55 AM 77.9 °F - 71.4 °F 80% 30.13 in 10.0 mi NW 3.5 mph - N/A   Scattered Clouds
12:15 PM 79.0 °F - 71.6 °F 78% 30.13 in 10.0 mi North 3.5 mph - N/A   Scattered Clouds
12:35 PM 81.9 °F 86.0 °F 70.9 °F 69% 30.12 in 10.0 mi WNW 3.5 mph - N/A   Scattered Clouds
12:55 PM 82.6 °F 85.3 °F 67.6 °F 60% 30.12 in 10.0 mi NNW 5.8 mph - N/A   Clear
1:15 PM 83.7 °F 85.5 °F 65.7 °F 54% 30.12 in 10.0 mi North 6.9 mph - N/A   Clear
1:35 PM 83.8 °F 86.5 °F 67.1 °F 57% 30.12 in 10.0 mi NE 5.8 mph - N/A   Clear
1:55 PM 82.8 °F 85.5 °F 67.6 °F 60% 30.12 in 10.0 mi East 3.5 mph - N/A   Scattered Clouds
2:15 PM 83.1 °F 85.7 °F 66.9 °F 58% 30.11 in 10.0 mi NNE 5.8 mph - N/A   Mostly Cloudy
2:35 PM 82.9 °F 85.0 °F 66.0 °F 56% 30.11 in 10.0 mi NNE 3.5 mph - N/A   Mostly Cloudy
2:55 PM 83.3 °F 85.7 °F 66.4 °F 57% 30.10 in 10.0 mi NE 3.5 mph - N/A   Mostly Cloudy
3:15 PM 83.3 °F 85.7 °F 66.6 °F 57% 30.10 in 10.0 mi NE 3.5 mph - N/A   Mostly Cloudy
3:35 PM 84.2 °F 87.1 °F 67.5 °F 57% 30.10 in 10.0 mi NNE 5.8 mph - N/A   Scattered Clouds
3:55 PM 83.3 °F 86.6 °F 68.5 °F 61% 30.09 in 10.0 mi NNE 6.9 mph - N/A   Clear
4:15 PM 83.7 °F 86.7 °F 67.8 °F 59% 30.09 in 10.0 mi NNE 8.1 mph - N/A   Clear
4:35 PM 85.3 °F 88.2 °F 67.3 °F 55% 30.09 in 10.0 mi North 11.5 mph - N/A   Scattered Clouds
4:55 PM 83.7 °F 86.5 °F 67.6 °F 58% 30.08 in 10.0 mi NNE 10.4 mph - N/A   Clear
5:15 PM 83.3 °F 86.6 °F 68.7 °F 61% 30.08 in 10.0 mi NNE 13.8 mph 18.4 mph N/A   Clear
5:35 PM 81.7 °F 85.4 °F 70.0 °F 68% 30.08 in 10.0 mi NE 9.2 mph - N/A   Clear
5:55 PM 80.6 °F 83.9 °F 69.8 °F 70% 30.09 in 10.0 mi NNE 10.4 mph - N/A   Clear
6:15 PM 80.1 °F 83.2 °F 69.8 °F 71% 30.09 in 10.0 mi NE 8.1 mph - N/A   Clear
6:35 PM 80.2 °F 83.1 °F 68.9 °F 68% 30.09 in 10.0 mi NE 6.9 mph - N/A   Clear
6:55 PM 79.0 °F - 69.8 °F 73% 30.09 in 10.0 mi NE 4.6 mph - N/A   Clear
7:15 PM 77.7 °F - 71.1 °F 80% 30.09 in 10.0 mi NE 3.5 mph - N/A   Clear
7:35 PM 77.0 °F - 71.1 °F 82% 30.09 in 10.0 mi Calm Calm - N/A   Clear
7:55 PM 77.2 °F - 70.9 °F 81% 30.10 in 10.0 mi Calm Calm - N/A   Clear
8:15 PM 77.0 °F - 71.1 °F 82% 30.10 in 10.0 mi Calm Calm - N/A   Clear
8:35 PM 74.7 °F - 71.2 °F 89% 30.10 in 10.0 mi NE 4.6 mph - N/A   Clear
8:55 PM 73.9 °F - 70.9 °F 90% 30.11 in 10.0 mi ENE 3.5 mph - N/A   Clear
9:15 PM 75.2 °F - 70.9 °F 86% 30.11 in 10.0 mi Calm Calm - N/A   Clear
9:35 PM 74.7 °F - 71.2 °F 89% 30.12 in 10.0 mi Calm Calm - N/A   Clear
9:55 PM 73.4 °F - 71.2 °F 93% 30.14 in 10.0 mi North 4.6 mph - N/A   Mostly Cloudy
10:15 PM 73.2 °F - 71.1 °F 93% 30.15 in 10.0 mi NNW 6.9 mph - N/A   Overcast
10:35 PM 73.8 °F - 71.6 °F 93% 30.15 in 10.0 mi NNW 11.5 mph - N/A   Overcast
10:55 PM 74.3 °F - 71.8 °F 92% 30.15 in 10.0 mi North 10.4 mph - N/A   Overcast
11:15 PM 73.4 °F - 71.1 °F 92% 30.14 in 7.0 mi North 10.4 mph - N/A Rain Light Rain
11:35 PM 72.5 °F - 70.7 °F 94% 30.14 in 10.0 mi North 10.4 mph - N/A Rain Light Rain
11:55 PM 71.1 °F - 69.8 °F 96% 30.15 in 7.0 mi North 8.1 mph - N/A Rain Light Rain